SH1B KTPA-

Flight info

Callsign SH1B
Flight time N/A
Altitude VFR
Route
Aircraft PA28/L-VGD/C

Departure

Time 2026-05-03 20:26
Airport Tampa International Airport (KTPA)

Arrival

Time N/A
Airport -
Time Latitude Longitude Altitude Speed Heading
2026-05-03 20:20 27.96812 -82.52159 33 ft 0 kts 184°
2026-05-03 20:23 27.96851 -82.52226 35 ft 13 kts 310°
2026-05-03 20:23 27.96869 -82.52336 36 ft 13 kts 270°
2026-05-03 20:23 27.96925 -82.52394 36 ft 20 kts 300°
2026-05-03 20:24 27.96938 -82.52574 37 ft 25 kts 272°
2026-05-03 20:24 27.96928 -82.52746 36 ft 16 kts 215°
2026-05-03 20:24 27.96887 -82.52777 35 ft 0 kts 226°
2026-05-03 20:25 27.96877 -82.52835 35 ft 25 kts 273°
2026-05-03 20:26 27.97080 -82.52876 33 ft 58 kts 359°
2026-05-03 20:26 27.97617 -82.52860 187 ft 85 kts
2026-05-03 20:26 27.98162 -82.52860 467 ft 88 kts
2026-05-03 20:26 27.98775 -82.52864 821 ft 88 kts
2026-05-03 20:27 27.99421 -82.52856 1114 ft 97 kts
2026-05-03 20:27 28.00082 -82.52816 1324 ft 94 kts
2026-05-03 20:27 28.00520 -82.52795 1439 ft 98 kts
2026-05-03 20:27 28.01462 -82.52470 1660 ft 113 kts 31°
2026-05-03 20:28 28.02129 -82.51931 1838 ft 118 kts 38°
2026-05-03 20:28 28.02876 -82.51253 1508 ft 150 kts 38°
2026-05-03 20:28 28.03708 -82.50495 1095 ft 168 kts 39°
2026-05-03 20:28 28.04299 -82.49963 1129 ft 155 kts 40°
2026-05-03 20:29 28.05108 -82.49171 993 ft 154 kts 43°
2026-05-03 20:29 28.05786 -82.48238 853 ft 150 kts 55°
2026-05-03 20:29 28.06335 -82.47250 574 ft 148 kts 62°
2026-05-03 20:29 28.06818 -82.46232 459 ft 145 kts 59°
2026-05-03 20:30 28.07276 -82.45346 853 ft 129 kts 59°
2026-05-03 20:30 28.07706 -82.44417 997 ft 134 kts 61°
2026-05-03 20:30 28.08110 -82.43464 1106 ft 137 kts 63°
2026-05-03 20:30 28.08572 -82.42472 1059 ft 144 kts 62°
2026-05-03 20:31 28.08984 -82.41474 1146 ft 136 kts 66°
2026-05-03 20:31 28.09415 -82.40504 1083 ft 137 kts 57°
2026-05-03 20:31 28.10153 -82.40104 1312 ft 127 kts 340°
2026-05-03 20:31 28.10306 -82.41091 1257 ft 157 kts 236°
2026-05-03 20:32 28.09499 -82.40949 1208 ft 142 kts 92°
2026-05-03 20:32 28.09918 -82.40027 1421 ft 127 kts 57°
2026-05-03 20:32 28.10354 -82.39168 1472 ft 123 kts 60°
2026-05-03 20:32 28.10771 -82.38386 1560 ft 106 kts 59°
2026-05-03 20:33 28.11015 -82.37612 1629 ft 109 kts 70°
2026-05-03 20:33 28.11255 -82.36757 1603 ft 113 kts 70°
2026-05-03 20:33 28.11467 -82.35932 1657 ft 106 kts 70°
2026-05-03 20:33 28.11964 -82.35544 1746 ft 102 kts 330°
2026-05-03 20:34 28.11775 -82.35829 1792 ft 84 kts 120°
2026-05-03 20:34 28.11643 -82.35198 1815 ft 61 kts 79°
2026-05-03 20:34 28.11672 -82.34828 985 ft 95 kts 82°
2026-05-03 20:34 28.11689 -82.34052 1368 ft 74 kts 85°
2026-05-03 20:35 28.11672 -82.33629 1031 ft 30 kts 109°